Home > Weather > Allentown > Past weeks

Flag for USA Past Weather in Allentown, Pennsylvania, USA — Yesterday and Last 2 Weeks

Now
75 °F

Clear.


Feels Like: 77 °F
Forecast: 67 / 88 °F
Wind: 3 mph from Southwest

Location: Lehigh Valley International Airport

Current Time: Aug 29, 2016 at 12:02:31 AM

Latest Report: Aug 28, 2016 at 10:51 PM


Visibility: 10 mi

Pressure: 30.16 "Hg

Humidity: 66%

Dew Point: 63 °F

Location of AllentownLocation

Past Weather in Allentown — Graph

°F

Allentown Temperature Yesterday

Maximum temperature yesterday: 90 °F (at 2:51 PM)
Minimum temperature yesterday: 61 °F (at 6:51 AM)
Average temperature yesterday: 76 °F

High & Low Weather Summary for the Past Weeks

 TemperatureHumidityPressure
High92 °F (Aug 14, 2:51 PM)94% (Aug 14, 4:51 AM)30.34 "Hg (Aug 14, 4:51 AM)
Low53 °F (Aug 23, 5:51 AM)36% (Aug 27, 4:51 PM)29.76 "Hg (Aug 21, 4:01 PM)
Average76 °F70%30.06 "Hg
* Reported Aug 13 9:51 PM — Aug 28 9:51 PM, Allentown, Weather by CustomWeather, © 2016

Note: Actual official high and low records may vary slightly from our data, if they occured in-between our weather recording intervals... More about our weather records

Advertising

Allentown Weather History for the Previous 24 Hours

Scroll right to see more
 ConditionsComfort  
Time TempWeatherWind HumidityBarometerVisibility
9:51 PM
Sun, Aug 28
77 °FClear.5 mph62%30.15 "Hg10 mi
8:51 PM77 °FClear.5 mph60%30.14 "Hg10 mi
7:51 PM78 °FSunny.6 mph58%30.13 "Hg10 mi
6:51 PM85 °FSunny.6 mph46%30.14 "Hg10 mi
5:51 PM88 °FSunny.5 mph40%30.15 "Hg10 mi
4:51 PM90 °FSunny.8 mph38%30.16 "Hg10 mi
3:51 PM90 °FSunny.7 mph37%30.17 "Hg10 mi
2:51 PM90 °FSunny.8 mph37%30.20 "Hg10 mi
1:51 PM87 °FSunny.9 mph40%30.22 "Hg10 mi
12:51 PM87 °FSunny.8 mph39%30.24 "Hg10 mi
11:51 AM84 °FSunny.5 mph43%30.25 "Hg10 mi
10:51 AM80 °FSunny.No wind56%30.27 "Hg10 mi
9:51 AM76 °FSunny.No wind69%30.27 "Hg10 mi
8:51 AM72 °FSunny.No wind73%30.27 "Hg10 mi
7:51 AM66 °FSunny.No wind84%30.27 "Hg10 mi
6:51 AM61 °FClear.3 mph90%30.27 "Hg9 mi
5:51 AM62 °FClear.No wind90%30.25 "Hg10 mi
4:51 AM63 °FClear.No wind87%30.23 "Hg10 mi
3:51 AM64 °FClear.3 mph87%30.22 "Hg10 mi
2:51 AM66 °FClear.5 mph81%30.20 "Hg10 mi
1:51 AM69 °FClear.3 mph76%30.22 "Hg10 mi
12:51 AM69 °FClear.3 mph76%30.22 "Hg10 mi
Weather by CustomWeather, © 2016

See weather overviewHow to use our weather pages